AMX246 MMMX-MMGL

Flight info

Callsign AMX246
Flight time 0h 44m
Altitude 36000
Route OVAGO3B OVAGO UT123 IGSON IGSON1B
Aircraft B38M/M-SDE1FGHILORVWXY/HB1

Departure

Time 2026-05-04 00:01
Airport Mexico City Benito Juárez International Airport (MMMX)

Arrival

Time 2026-05-04 00:46
Airport Guadalajara International Airport (MMGL)
Time Latitude Longitude Altitude Speed Heading
2026-05-03 23:27 19.42174 -99.08020 7305 ft 0 kts 30°
2026-05-03 23:44 19.42167 -99.08024 7305 ft 2 kts 30°
2026-05-03 23:44 19.42152 -99.08033 7305 ft 2 kts 30°
2026-05-03 23:44 19.42138 -99.08041 7305 ft 2 kts 11°
2026-05-03 23:45 19.42125 -99.08040 7305 ft 2 kts 302°
2026-05-03 23:45 19.42131 -99.08055 7305 ft 2 kts 290°
2026-05-03 23:45 19.42138 -99.08069 7305 ft 2 kts 301°
2026-05-03 23:45 19.42147 -99.08085 7305 ft 2 kts 301°
2026-05-03 23:46 19.42159 -99.08103 7305 ft 3 kts 306°
2026-05-03 23:46 19.42170 -99.08123 7305 ft 3 kts 301°
2026-05-03 23:46 19.42182 -99.08143 7305 ft 3 kts 301°
2026-05-03 23:46 19.42193 -99.08163 7305 ft 3 kts 301°
2026-05-03 23:47 19.42205 -99.08183 7305 ft 3 kts 301°
2026-05-03 23:47 19.42219 -99.08201 7305 ft 3 kts 323°
2026-05-03 23:47 19.42240 -99.08207 7305 ft 3 kts 355°
2026-05-03 23:47 19.42262 -99.08205 7305 ft 3 kts
2026-05-03 23:48 19.42285 -99.08202 7305 ft 3 kts
2026-05-03 23:48 19.42297 -99.08202 7305 ft 0 kts
2026-05-03 23:51 19.42306 -99.08201 7305 ft 3 kts
2026-05-03 23:52 19.42349 -99.08199 7305 ft 9 kts 359°
2026-05-03 23:52 19.42422 -99.08164 7305 ft 15 kts 54°
2026-05-03 23:52 19.42481 -99.08060 7305 ft 17 kts 59°
2026-05-03 23:52 19.42543 -99.07951 7305 ft 17 kts 59°
2026-05-03 23:53 19.42603 -99.07843 7305 ft 15 kts 56°
2026-05-03 23:53 19.42677 -99.07834 7305 ft 12 kts 332°
2026-05-03 23:53 19.42749 -99.07875 7305 ft 12 kts 342°
2026-05-03 23:53 19.42830 -99.07855 7305 ft 12 kts 27°
2026-05-03 23:54 19.42902 -99.07808 7305 ft 2 kts 34°
2026-05-03 23:54 19.42920 -99.07795 7305 ft 7 kts 36°
2026-05-03 23:54 19.42977 -99.07733 7305 ft 17 kts 52°
2026-05-03 23:54 19.43046 -99.07616 7305 ft 20 kts 59°
2026-05-03 23:55 19.43119 -99.07488 7305 ft 19 kts 59°
2026-05-03 23:55 19.43189 -99.07364 7305 ft 20 kts 58°
2026-05-03 23:55 19.43250 -99.07240 7305 ft 19 kts 74°
2026-05-03 23:55 19.43274 -99.07102 7305 ft 19 kts 72°
2026-05-03 23:56 19.43337 -99.06978 7305 ft 19 kts 58°
2026-05-03 23:56 19.43403 -99.06861 7305 ft 16 kts 65°
2026-05-03 23:56 19.43456 -99.06760 7305 ft 16 kts 40°
2026-05-03 23:56 19.43550 -99.06701 7305 ft 16 kts 33°
2026-05-03 23:57 19.43617 -99.06613 7305 ft 16 kts 59°
2026-05-03 23:57 19.43682 -99.06494 7305 ft 20 kts 59°
2026-05-03 23:57 19.43752 -99.06371 7305 ft 19 kts 59°
2026-05-03 23:57 19.43818 -99.06251 7305 ft 18 kts 59°
2026-05-03 23:58 19.43882 -99.06137 7305 ft 18 kts 59°
2026-05-03 23:58 19.43943 -99.06028 7305 ft 17 kts 59°
2026-05-03 23:58 19.44001 -99.05924 7305 ft 16 kts 59°
2026-05-03 23:58 19.44076 -99.05846 7305 ft 15 kts 23°
2026-05-03 23:59 19.44129 -99.05836 7305 ft 5 kts
2026-05-03 23:59 19.44192 -99.05831 7305 ft 14 kts
2026-05-03 23:59 19.44300 -99.05823 7305 ft 15 kts
2026-05-03 23:59 19.44404 -99.05816 7305 ft 14 kts
2026-05-04 00:00 19.44501 -99.05812 7305 ft 13 kts 354°
2026-05-04 00:00 19.44551 -99.05858 7304 ft 9 kts 254°
2026-05-04 00:00 19.44521 -99.05914 7304 ft 9 kts 239°
2026-05-04 00:00 19.44424 -99.06086 7304 ft 58 kts 239°
2026-05-04 00:01 19.44108 -99.06650 7307 ft 118 kts 239°
2026-05-04 00:01 19.43607 -99.07538 7322 ft 163 kts 239°
2026-05-04 00:01 19.43003 -99.08603 7839 ft 174 kts 238°
2026-05-04 00:01 19.42335 -99.09778 8383 ft 198 kts 239°
2026-05-04 00:02 19.41607 -99.11072 9010 ft 209 kts 238°
2026-05-04 00:02 19.40835 -99.12459 9431 ft 229 kts 239°
2026-05-04 00:02 19.39976 -99.13990 9912 ft 255 kts 239°
2026-05-04 00:02 19.39041 -99.15669 10551 ft 271 kts 239°
2026-05-04 00:03 19.38087 -99.17382 11539 ft 268 kts 240°
2026-05-04 00:03 19.37312 -99.19161 12355 ft 275 kts 258°
2026-05-04 00:03 19.37366 -99.21191 13170 ft 277 kts 287°
2026-05-04 00:03 19.38309 -99.22994 13785 ft 287 kts 314°
2026-05-04 00:04 19.39849 -99.24336 14468 ft 294 kts 322°
2026-05-04 00:04 19.41462 -99.25688 15232 ft 297 kts 322°
2026-05-04 00:04 19.43092 -99.27058 15926 ft 305 kts 322°
2026-05-04 00:04 19.44795 -99.28487 16407 ft 317 kts 322°
2026-05-04 00:05 19.46463 -99.30015 17145 ft 319 kts 310°
2026-05-04 00:05 19.47502 -99.32096 17833 ft 325 kts 284°
2026-05-04 00:05 19.47592 -99.34530 18268 ft 343 kts 260°
2026-05-04 00:05 19.46739 -99.36964 18544 ft 363 kts 246°
2026-05-04 00:06 19.45768 -99.39478 18857 ft 375 kts 250°
2026-05-04 00:06 19.44820 -99.42072 19416 ft 378 kts 251°
2026-05-04 00:06 19.43874 -99.44684 20017 ft 381 kts 251°
2026-05-04 00:06 19.42920 -99.47321 20573 ft 385 kts 251°
2026-05-04 00:07 19.41958 -99.49983 21143 ft 388 kts 251°
2026-05-04 00:07 19.40988 -99.52666 21680 ft 391 kts 251°
2026-05-04 00:07 19.40011 -99.55367 22210 ft 394 kts 251°
2026-05-04 00:07 19.39025 -99.58094 22719 ft 398 kts 251°
2026-05-04 00:08 19.38020 -99.60836 23218 ft 401 kts 250°
2026-05-04 00:08 19.36993 -99.63596 23716 ft 404 kts 250°
2026-05-04 00:08 19.35974 -99.66338 24155 ft 407 kts 250°
2026-05-04 00:08 19.34919 -99.69179 24544 ft 410 kts 251°
2026-05-04 00:09 19.33873 -99.71993 24929 ft 412 kts 251°
2026-05-04 00:09 19.32834 -99.74786 25323 ft 414 kts 251°
2026-05-04 00:09 19.31775 -99.77634 25699 ft 417 kts 251°
2026-05-04 00:09 19.30708 -99.80499 26081 ft 419 kts 251°
2026-05-04 00:10 19.29631 -99.83380 26458 ft 421 kts 251°
2026-05-04 00:10 19.28551 -99.86270 26821 ft 424 kts 251°
2026-05-04 00:10 19.27463 -99.89181 27192 ft 426 kts 251°
2026-05-04 00:10 19.26368 -99.92108 27557 ft 429 kts 252°
2026-05-04 00:11 19.25267 -99.95049 27939 ft 431 kts 252°
2026-05-04 00:11 19.24158 -99.98007 28322 ft 434 kts 252°
2026-05-04 00:11 19.23044 -100.00982 28702 ft 436 kts 252°
2026-05-04 00:11 19.21923 -100.03971 29083 ft 439 kts 252°
2026-05-04 00:12 19.20795 -100.06977 29456 ft 441 kts 252°
2026-05-04 00:12 19.19681 -100.10010 29798 ft 442 kts 255°
2026-05-04 00:12 19.19203 -100.12092 29997 ft 439 kts 265°
2026-05-04 00:12 19.19326 -100.16312 30340 ft 434 kts 285°
2026-05-04 00:13 19.20119 -100.19398 30585 ft 435 kts 288°
2026-05-04 00:13 19.20695 -100.21438 30759 ft 437 kts 289°
2026-05-04 00:13 19.21611 -100.24513 31041 ft 439 kts 290°
2026-05-04 00:13 19.22557 -100.27589 31333 ft 441 kts 290°
2026-05-04 00:14 19.23523 -100.30675 31595 ft 443 kts 290°
2026-05-04 00:14 19.24502 -100.33774 31870 ft 445 kts 290°
2026-05-04 00:14 19.25489 -100.36888 32126 ft 448 kts 290°
2026-05-04 00:14 19.26483 -100.40019 32391 ft 450 kts 290°
2026-05-04 00:15 19.27819 -100.44231 32780 ft 452 kts 290°
2026-05-04 00:15 19.28483 -100.46329 32965 ft 454 kts 290°
2026-05-04 00:15 19.29485 -100.49493 33300 ft 454 kts 289°
2026-05-04 00:15 19.30487 -100.52657 33699 ft 453 kts 289°
2026-05-04 00:16 19.31487 -100.55817 34060 ft 452 kts 289°
2026-05-04 00:16 19.32484 -100.58972 34426 ft 451 kts 289°
2026-05-04 00:16 19.33477 -100.62119 34762 ft 450 kts 289°
2026-05-04 00:16 19.34470 -100.65262 35100 ft 449 kts 289°
2026-05-04 00:17 19.35458 -100.68392 35453 ft 448 kts 289°
2026-05-04 00:17 19.36440 -100.71481 35763 ft 447 kts 290°
2026-05-04 00:17 19.37517 -100.74579 35870 ft 447 kts 290°
2026-05-04 00:17 19.38585 -100.77656 35901 ft 444 kts 290°
2026-05-04 00:18 19.40698 -100.83788 35898 ft 443 kts 290°
2026-05-04 00:18 19.42808 -100.89925 35911 ft 442 kts 290°
2026-05-04 00:19 19.44910 -100.96048 35909 ft 442 kts 290°
2026-05-04 00:19 19.47000 -101.02143 35926 ft 442 kts 290°
2026-05-04 00:20 19.49097 -101.08266 35937 ft 441 kts 290°
2026-05-04 00:20 19.51187 -101.14376 35958 ft 441 kts 290°
2026-05-04 00:21 19.53275 -101.20487 35967 ft 441 kts 290°
2026-05-04 00:21 19.55361 -101.26598 35970 ft 440 kts 290°
2026-05-04 00:22 19.57441 -101.32702 35983 ft 440 kts 290°
2026-05-04 00:22 19.59520 -101.38811 36001 ft 440 kts 290°
2026-05-04 00:23 19.61596 -101.44917 36003 ft 440 kts 290°
2026-05-04 00:23 19.63670 -101.51027 36009 ft 440 kts 290°
2026-05-04 00:24 19.65739 -101.57127 36013 ft 439 kts 290°
2026-05-04 00:24 19.67805 -101.63226 36014 ft 439 kts 290°
2026-05-04 00:25 19.69852 -101.69278 35641 ft 434 kts 290°
2026-05-04 00:25 19.70870 -101.72289 35020 ft 433 kts 291°
2026-05-04 00:25 19.71887 -101.75298 34347 ft 434 kts 291°
2026-05-04 00:26 19.72909 -101.78328 33553 ft 436 kts 291°
2026-05-04 00:26 19.73933 -101.81364 32868 ft 435 kts 291°
2026-05-04 00:26 19.74947 -101.84374 32329 ft 431 kts 291°
2026-05-04 00:26 19.75953 -101.87360 31810 ft 427 kts 291°
2026-05-04 00:27 19.76937 -101.90283 31253 ft 424 kts 291°
2026-05-04 00:27 19.77927 -101.93224 30684 ft 423 kts 291°
2026-05-04 00:27 19.78915 -101.96163 30134 ft 421 kts 292°
2026-05-04 00:27 19.79896 -101.99083 29502 ft 419 kts 291°
2026-05-04 00:28 19.80873 -102.01992 28919 ft 417 kts 291°
2026-05-04 00:28 19.81843 -102.04880 28392 ft 413 kts 291°
2026-05-04 00:28 19.82804 -102.07745 27862 ft 410 kts 291°
2026-05-04 00:28 19.83759 -102.10596 27343 ft 407 kts 291°
2026-05-04 00:29 19.84708 -102.13427 26822 ft 405 kts 291°
2026-05-04 00:29 19.85649 -102.16237 26310 ft 403 kts 291°
2026-05-04 00:29 19.86585 -102.19033 25800 ft 401 kts 291°
2026-05-04 00:29 19.87518 -102.21821 25294 ft 399 kts 291°
2026-05-04 00:30 19.88435 -102.24561 24795 ft 398 kts 291°
2026-05-04 00:30 19.89360 -102.27330 24297 ft 396 kts 291°
2026-05-04 00:30 19.90282 -102.30089 23777 ft 397 kts 291°
2026-05-04 00:30 19.91209 -102.32862 23194 ft 397 kts 291°
2026-05-04 00:31 19.92128 -102.35616 22687 ft 394 kts 291°
2026-05-04 00:31 19.93042 -102.38350 22213 ft 391 kts 291°
2026-05-04 00:31 19.93948 -102.41065 21761 ft 388 kts 291°
2026-05-04 00:31 19.94847 -102.43760 21291 ft 385 kts 291°
2026-05-04 00:32 19.95740 -102.46443 20799 ft 384 kts 291°
2026-05-04 00:32 19.96617 -102.49076 20405 ft 381 kts 291°
2026-05-04 00:32 19.97498 -102.51725 19990 ft 378 kts 291°
2026-05-04 00:32 19.98372 -102.54352 19565 ft 376 kts 291°
2026-05-04 00:33 19.99235 -102.56953 19267 ft 370 kts 291°
2026-05-04 00:33 20.01795 -102.61594 18019 ft 372 kts 321°
2026-05-04 00:33 20.03972 -102.63020 17247 ft 365 kts 334°
2026-05-04 00:34 20.06217 -102.64247 16564 ft 360 kts 333°
2026-05-04 00:34 20.08429 -102.65461 15901 ft 354 kts 333°
2026-05-04 00:34 20.10605 -102.66646 15254 ft 349 kts 333°
2026-05-04 00:34 20.12748 -102.67808 14623 ft 344 kts 332°
2026-05-04 00:35 20.14865 -102.68956 14013 ft 338 kts 332°
2026-05-04 00:35 20.16716 -102.70395 13597 ft 325 kts 310°
2026-05-04 00:35 20.18047 -102.72264 13289 ft 309 kts 308°
2026-05-04 00:35 20.19330 -102.73998 13038 ft 294 kts 308°
2026-05-04 00:36 20.20567 -102.75668 12795 ft 280 kts 308°
2026-05-04 00:36 20.21749 -102.77264 12542 ft 270 kts 308°
2026-05-04 00:36 20.22908 -102.78830 12320 ft 270 kts 308°
2026-05-04 00:36 20.24074 -102.80405 12074 ft 270 kts 308°
2026-05-04 00:37 20.25233 -102.81971 11834 ft 269 kts 308°
2026-05-04 00:37 20.26392 -102.83537 11603 ft 268 kts 307°
2026-05-04 00:37 20.27544 -102.85096 11372 ft 267 kts 307°
2026-05-04 00:37 20.28684 -102.86637 11135 ft 267 kts 307°
2026-05-04 00:38 20.29830 -102.88187 10911 ft 265 kts 307°
2026-05-04 00:38 20.30954 -102.89709 10733 ft 258 kts 307°
2026-05-04 00:38 20.32058 -102.91201 10503 ft 255 kts 307°
2026-05-04 00:38 20.33150 -102.92681 10245 ft 253 kts 306°
2026-05-04 00:39 20.34232 -102.94146 10012 ft 249 kts 306°
2026-05-04 00:39 20.35281 -102.95568 9784 ft 239 kts 306°
2026-05-04 00:39 20.36299 -102.96947 9577 ft 234 kts 306°
2026-05-04 00:39 20.37284 -102.98278 9522 ft 222 kts 306°
2026-05-04 00:40 20.38195 -102.99514 9522 ft 202 kts 306°
2026-05-04 00:40 20.39042 -103.00664 9531 ft 201 kts 306°
2026-05-04 00:40 20.39876 -103.01909 9519 ft 210 kts 296°
2026-05-04 00:40 20.40516 -103.03324 9457 ft 214 kts 293°
2026-05-04 00:41 20.41134 -103.04766 9309 ft 214 kts 292°
2026-05-04 00:41 20.41743 -103.06210 9099 ft 214 kts 292°
2026-05-04 00:41 20.42352 -103.07658 8851 ft 214 kts 292°
2026-05-04 00:41 20.42962 -103.09109 8623 ft 214 kts 291°
2026-05-04 00:42 20.43561 -103.10544 8382 ft 209 kts 291°
2026-05-04 00:42 20.44147 -103.11941 8115 ft 203 kts 291°
2026-05-04 00:42 20.44713 -103.13290 7847 ft 195 kts 291°
2026-05-04 00:42 20.45258 -103.14591 7668 ft 189 kts 291°
2026-05-04 00:43 20.45789 -103.15861 7588 ft 188 kts 291°
2026-05-04 00:43 20.46313 -103.17110 7348 ft 178 kts 291°
2026-05-04 00:43 20.46807 -103.18289 7116 ft 172 kts 292°
2026-05-04 00:43 20.47294 -103.19450 6875 ft 172 kts 292°
2026-05-04 00:44 20.47783 -103.20617 6675 ft 172 kts 291°
2026-05-04 00:44 20.48268 -103.21777 6465 ft 170 kts 291°
2026-05-04 00:44 20.48733 -103.22888 6299 ft 159 kts 292°
2026-05-04 00:44 20.49178 -103.23949 6165 ft 156 kts 292°
2026-05-04 00:45 20.49607 -103.24994 5963 ft 155 kts 292°
2026-05-04 00:45 20.50039 -103.26042 5752 ft 154 kts 292°
2026-05-04 00:45 20.50471 -103.27082 5523 ft 152 kts 294°
2026-05-04 00:45 20.50911 -103.28091 5308 ft 149 kts 293°
2026-05-04 00:46 20.51331 -103.29096 5096 ft 150 kts 294°
2026-05-04 00:46 20.51726 -103.30028 5031 ft 114 kts 294°
2026-05-04 00:46 20.51957 -103.30576 5027 ft 48 kts 294°
2026-05-04 00:46 20.52074 -103.30775 5031 ft 30 kts 315°
2026-05-04 00:47 20.52221 -103.30897 5032 ft 26 kts 324°
2026-05-04 00:47 20.52365 -103.30993 5030 ft 22 kts 359°
2026-05-04 00:47 20.52448 -103.30877 5031 ft 22 kts 70°
2026-05-04 00:47 20.52459 -103.30722 5029 ft 22 kts 115°
2026-05-04 00:48 20.52393 -103.30567 5031 ft 23 kts 114°
2026-05-04 00:48 20.52370 -103.30433 5028 ft 12 kts 30°
2026-05-04 00:48 20.52445 -103.30399 5032 ft 11 kts 47°
2026-05-04 00:48 20.52440 -103.30324 5031 ft 11 kts 108°
2026-05-04 00:49 20.52414 -103.30241 5026 ft 13 kts 99°
2026-05-04 00:49 20.52389 -103.30147 5030 ft 14 kts 108°
2026-05-04 00:49 20.52357 -103.30045 5031 ft 15 kts 110°
2026-05-04 00:49 20.52324 -103.29948 5027 ft 11 kts 110°
2026-05-04 00:50 20.52333 -103.29915 5027 ft 4 kts 27°
2026-05-04 00:50 20.52364 -103.29904 5031 ft 6 kts 19°
2026-05-04 00:50 20.52372 -103.29901 5031 ft 0 kts 19°